Regional Weather Roundup
Issued by NWS

Home | Current Version | Previous Version | Text Only | Print | Product List | Glossary Off
Versions: 1 2 3 4 5 6 7 8 9 10 11 12 13 14 15 16 17 18 19 20 21 22 23 24 25 26 27 28 29 30 31 32 33 34 35 36 37 38 39 40 41 42 43 44 45 46 47 48 49 50

136
ASUS43 KOAX 190202
RWRNE

WEATHER ROUNDUP FOR NEBRASKA
NATIONAL WEATHER SERVICE OMAHA NE
800 PM CST WED JAN 18 2017

NOTES: SATELLITE DATA IS BEING USED TO AUGMENT CLOUD COVER ABOVE
       12000 FEET.
       "FAIR" INDICATES FEW OR NO CLOUDS BELOW 12,000 FEET WITH NO
       SIGNIFICANT WEATHER AND/OR OBSTRUCTIONS TO VISIBILITY.

  * THESE STATIONS DO NOT REPORT WEATHER SUCH AS RAIN...SNOW OR FOG.

NEZ001>004-019>022-054>056-190300-
NEBRASKA PANHANDLE

CITY           SKY/WX    TMP DP  RH WIND       PRES   REMARKS
SCOTTSBLUFF    CLOUDY    39  23  52 CALM      29.70F
ALLIANCE       CLOUDY    28  23  81 S8        29.69F WCI  20
CHADRON        CLOUDY    28  23  81 CALM      29.67S
KIMBALL        CLOUDY    32  29  87 W7        29.73F WCI  26
SIDNEY         CLOUDY    30  25  81 SW12      29.73F WCI  20
$$

NEZ057>060-069>072-079>082-190300-
SOUTHWEST NEBRASKA

CITY           SKY/WX    TMP DP  RH WIND       PRES   REMARKS
NORTH PLATTE   CLOUDY    31  28  89 SE5       29.77F WCI  26
IMPERIAL       CLEAR     30  26  85 S5        29.75F WCI  25
LEXINGTON      CLOUDY    40  35  84 CALM      29.81R
MCCOOK         CLEAR     37  34  89 S5        29.80S WCI  33
OGALLALA       CLEAR     35  30  82 SW6       29.75F WCI  30
$$

NEZ005>010-023>029-035>040-094-190300-
NORTH CENTRAL NEBRASKA

CITY           SKY/WX    TMP DP  RH WIND       PRES   REMARKS
VALENTINE      CLOUDY    39  24  55 SW13      29.69S WCI  31
AINSWORTH      CLEAR     39  28  66 S13       29.71S WCI  31
BROKEN BOW     PTCLDY    35  33  92 SE7       29.78F WCI  29
O`NEILL        CLEAR     37  34  87 S10       29.76S WCI  30
ORD            CLOUDY    33  30  88 CALM      29.80S
THEDFORD       CLEAR     37  31  78 S7        29.74S WCI  32
$$

NEZ041-046>049-061>064-073>077-083>087-190300-
SOUTH CENTRAL NEBRASKA

CITY           SKY/WX    TMP DP  RH WIND       PRES   REMARKS
GRAND ISLAND   CLEAR     37  37 100 S9        29.84S WCI  30
AURORA         CLEAR     42  37  83 S12       29.84F
HASTINGS       CLEAR     39  36  89 S5        29.85S
HEBRON         PTCLDY    38  34  86 S7        29.88F WCI  32
HOLDREGE       CLEAR     39  36  87 S7        29.81F WCI  34
KEARNEY *      CLEAR     37  34  87 CALM      29.82F
YORK           PTCLDY    37  36  93 S8        29.86S WCI  31
$$

NEZ011>018-030>034-042>045-190300-
NORTHEAST NEBRASKA

CITY           SKY/WX    TMP DP  RH WIND       PRES   REMARKS
NORFOLK        CLOUDY    38  35  89 S8        29.83F WCI  32
ALBION         PTCLDY    38  36  90 S3        29.83F
BLAIR          CLEAR     42  37  80 S7        29.88S
FREMONT        CLEAR     41  36  81 SE5       29.88S
TEKAMAH        CLEAR     35  33  92 SE7       29.88S WCI  29
WAYNE          CLEAR     37  36  94 S7        29.83F WCI  32
$$

NEZ050>053-065>068-078-088>093-190300-
SOUTHEAST NEBRASKA

CITY           SKY/WX    TMP DP  RH WIND       PRES   REMARKS
LINCOLN        CLEAR     37  34  89 S8        29.89F WCI  31
OMAHA EPPLEY   CLEAR     40  34  79 S9        29.90S WCI  34
BEATRICE       CLEAR     42  35  76 SE7       29.90S
FALLS CITY     CLEAR     35  33  92 SE8       29.94F WCI  29
NEBRASKA CITY  CLEAR     39  34  80 S10       29.92S WCI  32
PLATTSMOUTH    CLEAR     42  34  72 S15G22    29.89F
$$

NEZ044-045-051>053-067-190300-
OMAHA AREA

CITY           SKY/WX    TMP DP  RH WIND       PRES   REMARKS
OMAHA EPPLEY   CLEAR     40  34  79 S9        29.90S WCI  34
BLAIR          CLEAR     42  37  80 S7        29.88S
FREMONT        CLEAR     41  36  81 SE5       29.88S
MILLARD        CLEAR     42  37  81 SE6       29.90S
OFFUTT AFB     CLEAR     40  40  99 SE6       29.90S
PLATTSMOUTH    CLEAR     42  34  72 S15G22    29.89F
WAHOO          FAIR      37  34  89 SE8       29.87F WCI  30
$$




USA.gov is the U.S. government's official web portal to all federal, state and local government web resources and services.